Погода в Визиндоре

Россия / Республика Коми     60°58′02″N   49°41′32″E
темп.,
°C
ветер,
м/с
пор.,
м/с
влажн.,
%
обл.,
%
осадки,
мм/ч
давл.,
гПа
погр.,
м
24 января, вс
вс2400:00−16ююв41095100 0.5 1018472
03:00−19юв3796100 0.3 1020320
06:00−13ю3795100 1.0 1015410
09:00−12ю2695100 1.4 1016244
12:00−10ю2495100 0.0 1016202
15:00−10ю2297100 0.1 101747
18:00−9ю2397100 0.0 101770
21:00−2ююз2797100 0.0 1017239
25 января, пн
пн2500:00+1юз3998100 0.2 1016410
03:00+1ююз4998100 0.1 1016405
06:00+1ююз3998100 0.0 1016416
09:00−5ююв379797 0.1 1020163
12:000ю279895 0.1 1019296
15:00+1ююз3998100 0.2 1017425
18:00+1ююз3899100 0.1 1016238
21:00+1юз41198100 0.3 1016523
26 января, вт
вт2600:00+2юз31296100 0.0 1017489
03:00+2юз41196100 0.1 1017445
06:00+1юз41096100 0.0 1017470
09:00−2ююз4994100 0.1 1018397
12:00−4юз4892100 0.0 1018541
15:00−4юз3792100 0.1 1018565
18:00−5ю2697100 0.1 1018220
21:00−4ююз2796100 0.2 1018284
27 января, ср
ср2700:00−4ю2796100 0.1 1018282
03:00−3ююв2696100 0.1 1017275
06:00−6юв2397100 0.1 101787
09:00−4ю3995100 0.1 1016408
12:00−2ю3993100 0.1 1016656
15:00−6ююв229799 0.1 102042
18:00−1ю41197100 0.3 1013644
21:000ю41297100 0.9 1011577
28 января, чт
чт2800:00+1ю41198100 0.9 1010506
03:000ю41098100 3.4 1010557
06:00−2ю41195100 1.0 1009545
09:00−1ю51293100 0.8 1018453
12:00−2ю51291100 0.0 1018596
15:00−2ю41289100 0.0 1018529
18:00−4ююз51195100 1.3 1007636
21:00−4ююз41195100 2.4 1006591